Regional Weather Roundup
Issued by NWS

Home | Current Version | Previous Version | Text Only | Print | Product List | Glossary On
Versions: 1 2 3 4 5 6 7 8 9 10 11 12 13 14 15 16 17 18 19 20 21 22 23 24 25 26 27
000
ASUS45 KCYS 310010
RWRWY

WYOMING REGIONAL WEATHER ROUNDUP
NATIONAL WEATHER SERVICE CHEYENNE WY
600 PM MDT TUE AUG 30 2016

NOTE:  "FAIR" INDICATES FEW OR NO CLOUDS BELOW 12,000 FEET
WITH NO SIGNIFICANT WEATHER AND/OR OBSTRUCTIONS TO VISIBILITY.

WYZ001-310100-
YELLOWSTONE NATIONAL PARK

CITY           SKY/WX    TMP DP  RH WIND       PRES   REMARKS
LK YELLOWSTONE   N/A     72  32  23 CALM      30.37S
6HR MIN TEMP:  69; 6HR MAX TEMP:  78;

W YELLOWSTONE  NOT AVBL

$$
WYZ002>013-054>058-071-098>099-310100-
NORTHERN WYOMING

CITY           SKY/WX    TMP DP  RH WIND       PRES   REMARKS
JACKSON        NOT AVBL
CODY           FAIR      88  30  12 SE14      30.13F
GREYBULL       FAIR      94  23   8 CALM      30.04F
6HR MIN TEMP:  89; 6HR MAX TEMP:  96;

WORLAND        FAIR      93  24   8 S7        30.07F
6HR MIN TEMP:  88; 6HR MAX TEMP:  95;

SHERIDAN       FAIR      91  32  12 SE16G23   30.07F
6HR MIN TEMP:  90; 6HR MAX TEMP:  96;

BUFFALO        FAIR      88  28  11 S17       30.17F
6HR MIN TEMP:  87; 6HR MAX TEMP:  93;

GILLETTE       FAIR      85  41  21 SE21G26   30.17F
6HR MIN TEMP:  84; 6HR MAX TEMP:  89;

HULETT         FAIR      82  46  28 SE8       30.21S
NEWCASTLE      FAIR      82  43  24 SE12G18   30.22S

$$
WYZ014>020-022>026-101>103-310100-
CENTRAL WYOMING

CITY           SKY/WX    TMP DP  RH WIND       PRES   REMARKS
BIG PINEY      FAIR      82  27  13 W7        30.30F
6HR MIN TEMP:  73; 6HR MAX TEMP:  84;

PINEDALE       FAIR      81  25  12 SE3       30.30F
DUBOIS         FAIR      73  28  19 SE13      30.30F
LANDER         FAIR      86  28  12 S3        30.19F
6HR MIN TEMP:  78; 6HR MAX TEMP:  90;

RIVERTON       FAIR      86  28  12 E7        30.19F
6HR MIN TEMP:  76; 6HR MAX TEMP:  88;

CASPER         FAIR      83  34  17 E13       30.21S
6HR MIN TEMP:  78; 6HR MAX TEMP:  86;

DOUGLAS        FAIR      83  31  15 SE17G23   30.24S
6HR MIN TEMP:  80; 6HR MAX TEMP:  86;


$$
WYZ021-027>030-104>119-310100-
SOUTHERN WYOMING

CITY           SKY/WX    TMP DP  RH WIND       PRES   REMARKS
EVANSTON       FAIR      82  20  10 NE13      30.28F
6HR MIN TEMP:  77; 6HR MAX TEMP:  84;

FORT BRIDGER   FAIR      83  21  10 E6G12     30.31
ROCK SPRINGS   FAIR      81  17   9 VRB6      30.27F
6HR MIN TEMP:  75; 6HR MAX TEMP:  83;

DIXON          FAIR      82  30  15 CALM      30.25F
RAWLINS        FAIR      81  27  14 E15G21    30.29F
6HR MIN TEMP:  73; 6HR MAX TEMP:  84;

SARATOGA       FAIR      81  30  16 E8        30.29F
LARAMIE        FAIR      71  41  33 E10       30.36S
6HR MIN TEMP:  70; 6HR MAX TEMP:  77;

CHEYENNE       FAIR      70  51  51 SE6       30.33S
6HR MIN TEMP:  68; 6HR MAX TEMP:  75;

TORRINGTON     FAIR      82  46  28 SE14      30.20S
6HR MIN TEMP:  79; 6HR MAX TEMP:  86;

PINE BLUFFS    FAIR      75  50  41 SE6       30.28S

$$




USA.gov is the U.S. government's official web portal to all federal, state and local government web resources and services.